Location: Les Chemineaux
(47.3024°N, 1.5104°E)
Time: 18:33:49
(UTC+00:00)

DELTA 2 R/B (1) - Pass Details

Date: 19 May 2025
Orbit: 787 x 800 km, 39.6° (Epoch: 22 June)

Event Time Altitude Azimuth Distance (km) Brightness Sun altitude
Rises 22:11:30 0° 249° (WSW) 3,272 6.8 -19.1°
Reaches altitude 10° 22:14:08 10° 241° (WSW) 2,345 6.0 -19.3°
Enters shadow 22:19:08 37° 177° (S) 1,208 4.0 -19.6°
